Regional Weather Roundup
Issued by NWS Grand Forks, ND

Home | Current Version | Previous Version | Graphics & Text | Print | Product List | Glossary On
Versions: 1 2 3 4 5 6 7 8 9 10 11 12 13 14 15 16 17 18 19 20 21 22 23 24 25 26 27 28 29 30 31 32 33 34 35 36 37 38 39 40 41 42 43 44 45 46 47 48 49 50
000
ASUS43 KFGF 221431
RWRFGF
PRAIRIE TO PINES  WEATHER ROUNDUP
NATIONAL WEATHER SERVICE EASTERN NORTH DAKOTA/GRAND FORKS ND
900 AM CDT TUE JUL 22 2014

 **SATELLITE DATA USED TO AUGMENT SKY COVER AT AUTOMATED STATIONS**
 *****  WEATHER ACROSS EASTERN NORTH DAKOTA  *****

CITY           SKY/WX    TMP DP  RH WIND       PRES   REMARKS
GRAND FORKS    MOSUNNY   68  60  75 N9        30.07R
GRAND FRKS AFB SUNNY     68  62  83 NW8       30.09R
GRAND FRKS NWS   N/A     68 N/A N/A NW12        N/A
DEVILS LAKE    SUNNY     66  59  77 N7        30.12R
FARGO          SUNNY     69  60  73 N16       30.07R
WAHPETON ARPT  MOSUNNY   70  59  68 N13       30.09R
$$

 ***** WEATHER ACROSS CENTRAL AND WESTERN NORTH DAKOTA  *****

CITY           SKY/WX    TMP DP  RH WIND       PRES   REMARKS
BISMARCK       MOSUNNY   69  63  81 NW6       30.17R
MINOT          PTSUNNY   65  59  81 CALM      30.15R
JAMESTOWN      SUNNY     68  60  75 NW10      30.13R
MINOT AFB      SUNNY     66  64  93 N5        30.15R
GARRISON         N/A     65  62  90 N3        30.16R
WILLISTON      SUNNY     66  61  84 CALM      30.15S
DICKINSON      SUNNY     63  61  93 CALM      30.18R
HETTINGER      SUNNY     66  61  84 NE3       30.20R
$$

 *****  OTHER AIRPORT OBSERVATIONS IN OUR AREA  *****

CITY           SKY/WX    TMP DP  RH WIND       PRES   REMARKS
WALHALLA         N/A     68  59  73 N12         N/A
GRAFTON AIRPOR FAIR      66  57  72 N10       30.09R
VALLEY CITY AR FAIR      68  66  94 N10       30.13R
CANDO          FAIR      66  63  88 N6        30.14R
CAVALIER APRT  FAIR      66  57  72 NW9       30.10R
GWINNER        SUNNY     70  64  83 N14       30.12R
ROLLA          FAIR      66  63  88 N9        30.16R
 ***** THE ABOVE OBSERVATIONS ARE NON NWS ARE NOT QUALITY
       CONTROLLED AND MAY MIS-REPORT RAIN FOR SNOW...
$$

  *****  WEATHER ACROSS NORTHERN MINNESOTA  *****

CITY           SKY/WX    TMP DP  RH WIND       PRES   REMARKS
FLAG ISLAND    SUNNY     64  54  68 NW16      29.99R
WARROAD        SUNNY     64  57  77 NW10G20   30.01R
ROSEAU         SUNNY     64  57  77 N12       30.03R
HALLOCK        SUNNY     66  59  77 N14       30.07R
THF RVR FALLS  SUNNY     66  55  68 NW13      30.06R
BAUDETTE       SUNNY     67  59  75 NW15      29.98R
WASKISH        MOSUNNY   66  61  82 NW12      29.99R
CROOKSTON      NOT AVBL
$$
  *****  WEATHER ACROSS CENTRAL AND WEST MINNESOTA  *****

CITY           SKY/WX    TMP DP  RH WIND       PRES   REMARKS
FOSSTON        SUNNY     64  59  82 NW10      30.06R
BEMIDJI        MOSUNNY   66  59  79 NW15G21   30.01S
PARK RAPIDS    MOSUNNY   68  61  78 NW15      30.02R
ELBOW LAKE     PTSUNNY   67  62  85 N13       30.06R
WADENA         MOSUNNY   66  61  82 NW14G20   30.04R
DETROIT LAKES  CLOUDY    64  61  88 NW9G17    30.08R
MOORHEAD       SUNNY     68  64  88 N9        30.08R
FERGUS FALLS   MOSUNNY   68  61  77 N14       30.06R
MORRIS MN      PTSUNNY   66  64  94 NW13      30.05R
STAPLES        CLOUDY    66  61  82 NW13G20   30.02R
$$
  *****  WEATHER ELSEWHERE ACROSS MINNESOTA  *****

CITY           SKY/WX    TMP DP  RH WIND       PRES   REMARKS
DULUTH         CLOUDY    70  62  76 NW16G31   29.87R
INTRNTL FALLS  CLOUDY    64  61  90 NW12      29.92R
ELY            CLOUDY    64  63  94 NW12G17   29.85R
CLOQUET        CLOUDY    68  63  83 W17       29.92R
WHEATON        PTSUNNY   66  61  82 NW16G22   30.09S
BRAINERD       CLOUDY    67  62  84 NW13G22   29.99R
HIBBING        CLOUDY    69  63  81 NW15G28   29.90R
ALEXANDRIA     CLOUDY    67  62  84 NW16      30.05R
SAINT CLOUD    PTSUNNY   73  63  68 NW18      29.98R
MINNEAPOLIS    MOSUNNY   76  64  66 NW18      29.94R
$$

  *****  WEATHER ACROSS SOUTH DAKOTA  *****

CITY           SKY/WX    TMP DP  RH WIND       PRES   REMARKS
SIOUX FALLS    MOSUNNY   74  65  73 N13       30.03R
BROOKINGS      NOT AVBL
WATERTOWN      PTSUNNY   68  62  81 N16       30.08R
HURON          PTSUNNY   68  63  84 N14       30.08R
SISSETON         N/A     70  62  76 N17       30.08R
ABERDEEN       SUNNY     69  63  81 N15       30.12R
MITCHELL       PTSUNNY   72  66  81 N10G20    30.09R
PIERRE         CLOUDY    68  64  87 N12       30.13F
MOBRIDGE       CLOUDY    66  63  90 N9        30.15R
RAPID CITY     SUNNY     71  65  81 NW6       30.22R
$$

  *****  SOME WEATHER IN NEARBY STATES *****

CITY           SKY/WX    TMP DP  RH WIND       PRES   REMARKS
GLASGOW MT     SUNNY     66  55  67 N5        30.16R
GREAT FALLS MT CLOUDY    60  53  77 CALM      30.17R
CHEYENNE WY    SUNNY     64  56  75 N12G25    30.37S
SCOTTSBLUFF NE SUNNY     74  59  59 E8        30.23S
OMAHA NE       PTSUNNY   85  73  67 N9        29.98R HX  91
DES MOINES IA  PTSUNNY   83  75  77 W18       29.94R HX  90
DAVENPORT IA   PTSUNNY   77  69  76 SW12      29.98S
CHICAGO IL     MOSUNNY   78  63  59 S12G20    30.00F
EAU CLAIRE WI  MOSUNNY   82  72  71 W21G29    29.88R
LA CROSSE WI   CLOUDY    80  72  76 VRB5      29.91R
$$

  *****  SOME NATIONAL WEATHER *****

CITY           SKY/WX    TMP DP  RH WIND       PRES   REMARKS
LA GUARDIA NY  MOSUNNY   81  64  56 SW8       30.15F
RALEIGH NC     CLOUDY    76  70  82 E5        30.18S
ATLANTA GA     CLOUDY    74  69  85 E7        30.17R
NEW ORLEANS LA PTSUNNY   85  76  74 CALM      30.03S HX  94
OKLAHOMA CITY  PTSUNNY   79  72  79 S14       30.11R
ALBUQUERQUE NM MOSUNNY   78  52  40 N9        30.28R
SALT LAKE CITY PTSUNNY   70  45  40 SE5       30.20R
LOS ANGELES CA MOSUNNY   67  63  87 S3        30.04R
BOISE ID       SUNNY     71  53  52 SE10      30.12R
SEATTLE WA     PTSUNNY   56  53  90 CALM      30.04R
$$

*** WEATHER ACROSS MANITOBA...SASKATCHEWAN AND ONTARIO ***
                ***ONTARIO***

CITY           SKY/WX    TMP DP  RH WIND       PRES   REMARKS
GERALDTON      CLOUDY    66  64  94 SE5       29.69  FOG
THUNDER BAY    LGT RAIN  66  64  94 SW6       29.65F
SIOUX LOOKOUT  CLOUDY    59  57  94 N10G17    29.89R
TORONTO        SUNNY     79  64  61 SW5       30.11F
BIG TROUT LK   SUNNY     55  45  67 NE8       29.99S
PICKLE LAKE    PTSUNNY   57  54  88 N6        29.91R
DRYDEN         MOSUNNY   61  57  88 N8        29.91R
KENORA           N/A     63  55  77 N9        29.99R
$$
                *** MANITOBA***

CITY           SKY/WX    TMP DP  RH WIND       PRES   REMARKS
BRANDON        MOSUNNY   64  59  82 VRB2      30.13R
DAUPHIN          N/A     64  57  77 W3        30.13R
ISLAND LAKE    PTSUNNY   54  46  76 NE8       30.11R
PILOT MOUND      N/A     64  59  82 N5          N/A
THE PAS        MOSUNNY   61  54  77 NW3       30.18R
THOMPSON       PTSUNNY   57  50  77 W2        30.15R
WINNIPEG       SUNNY     66  57  72 N9        30.09R
LYNN LAKE      SUNNY     61  52  72 N7        30.17R
CHURCHILL      MOSUNNY   57  48  72 NW13      30.04S
GILLAM         PTSUNNY   57  50  77 W6        30.11R
$$
                ***SASKATCHEWAN***

CITY           SKY/WX    TMP DP  RH WIND       PRES   REMARKS
ESTEVAN        PTSUNNY   66  61  82 SE3       30.17R
KINDERSLEY     MOSUNNY   61  57  88 CALM      30.19R
LLOYDMINSTER   SUNNY     61  55  82 S3        30.18R
PRINCE ALBERT  PTSUNNY   57  54  88 VRB2      30.18R
REGINA         SUNNY     66  54  63 E3        30.18R
YORKTON        SUNNY     61  55  82 NW5       30.17R
N. BATTLEFORD  SUNNY     57  55  94 CALM      30.20R
LA RONGE       SUNNY     61  52  72 S7        30.17S
SASKATOON      MOSUNNY   61  57  88 CALM      30.19R
SWIFT CURRENT  SUNNY     59  57  94 VRB2      30.20R
$$
NOTE: THESE ARE AUTOMATED STATIONS WITH LIMITED QUALITY CONTROL
      "FAIR" INDICATES FEW OR NO CLOUDS BELOW 12,000 FEET WITH NO
      SIGNIFICANT WEATHER AND/OR OBSTRUCTIONS TO VISIBILITY.
      SKY/WX - SKY CONDITION AND SIGNIFICANT WEATHER.
      TMP - AIR TEMPERATURE.    DP   - DEWPOINT TEMPERATURE.
      RH  - RELATIVE HUMIDITY.  PRES - PRESSURE.
      HX  - HEAT INDEX.         WCI  - WIND CHILL INDEX.
$


USA.gov is the U.S. government's official web portal to all federal, state and local government web resources and services.